Longville, MN

9:25 PM CDT on August 18, 2017 (GMT -0500)
Longville Municipal

Weather History for KXVG - December, 2012

Change the Weather History Date:

Thursday, December 20, 2012

  Actual Average (KPWC) Record (KPWC)
Temperature  
Mean Temperature 12 °F -  
Max Temperature 19 °F 20 °F 39 °F (2006)
Min Temperature 5 °F 5 °F -16 °F (1996)
Degree Days  
Heating Degree Days 53    
Moisture  
Dew Point 11 °F    
Average Humidity 90    
Maximum Humidity 93    
Minimum Humidity 85    
Precipitation  
Precipitation 0.00 in - - ()
Sea Level Pressure  
Sea Level Pressure 30.01 in    
Wind  
Wind Speed 3 mph (NW)    
Max Wind Speed 8 mph    
Max Gust Speed -    
Visibility 8 miles    
Events Snow    
Averages and records for this station are not official NWS values.
T = Trace of Precipitation, MM = Missing Value Source: NWS Daily Summary

Daily Weather History Graph

Daily Weather History Graph

Search for Another Location

Airport or City:

Trip Planner

Search our weather history database for the weather conditions in past years. The results will help you decide how hot, cold, wet, or windy it might be!

Date:

Astronomy

Dec. 20, 2012 Rise Set
Actual Time 7:59 AM CST 4:30 PM CST
Civil Twilight 7:23 AM CST 5:05 PM CST
Nautical Twilight 6:45 AM CST 5:44 PM CST
Astronomical Twilight 6:07 AM CST 6:21 PM CST
Moon 12:07 PM CST (12/20) 12:26 AM CST (12/20)
Length of Visible Light 9h 41m
Length of Day
8h 30m
First Quarter, 55% of the Moon is Illuminated
Dec 20
First Quarter
Dec 28
Full
Jan 4
Last Quarter
Jan 11
New
Jan 18
First Quarter

Hourly Weather History & Observations

Time (CST) Temp. Windchill Dew Point Humidity Pressure Visibility Wind Dir Wind Speed Gust Speed Precip Events Conditions
12:16 AM 19.4 °F - 17.6 °F 93% 29.98 in 7.0 mi Calm Calm - N/A   Overcast
12:36 AM 19.4 °F - 17.6 °F 93% 29.98 in 7.0 mi Calm Calm - N/A   Overcast
12:56 AM 19.4 °F - 17.6 °F 93% 29.97 in 7.0 mi Calm Calm - N/A   Overcast
1:16 AM 19.4 °F - 17.6 °F 93% 29.97 in 7.0 mi Calm Calm - N/A   Overcast
1:36 AM 19.4 °F - 17.6 °F 93% 29.97 in 5.0 mi Calm Calm - N/A   Overcast
1:56 AM 19.4 °F 14.3 °F 17.6 °F 93% 29.97 in 5.0 mi WNW 3.5 mph - N/A   Overcast
2:16 AM 19.4 °F - 17.6 °F 93% 29.97 in 5.0 mi Calm Calm - N/A   Overcast
2:36 AM 19.4 °F - 17.6 °F 93% 29.97 in 5.0 mi Calm Calm - N/A   Overcast
2:56 AM 19.4 °F - 17.6 °F 93% 29.98 in 5.0 mi Calm Calm - N/A   Overcast
3:16 AM 19.4 °F - 17.6 °F 93% 29.98 in 7.0 mi Calm Calm - N/A   Overcast
3:36 AM 19.4 °F 14.3 °F 17.6 °F 93% 29.99 in 7.0 mi NW 3.5 mph - N/A   Overcast
3:56 AM 19.4 °F 14.3 °F 17.6 °F 93% 29.99 in 7.0 mi WNW 3.5 mph - N/A   Overcast
4:16 AM 19.4 °F 14.3 °F 17.6 °F 93% 29.98 in 10.0 mi NW 3.5 mph - N/A   Overcast
4:36 AM 19.4 °F 12.8 °F 17.6 °F 93% 29.97 in 10.0 mi NNW 4.6 mph - N/A   Overcast
4:56 AM 19.4 °F - 17.6 °F 93% 29.97 in 10.0 mi Calm Calm - N/A   Overcast
5:16 AM 19.4 °F 14.3 °F 17.6 °F 93% 29.97 in 10.0 mi NNW 3.5 mph - N/A   Overcast
5:36 AM 19.4 °F 12.8 °F 17.6 °F 93% 29.97 in 10.0 mi NNW 4.6 mph - N/A   Overcast
5:56 AM 19.4 °F 14.3 °F 17.6 °F 93% 29.97 in 10.0 mi NNW 3.5 mph - N/A   Overcast
6:16 AM 19.4 °F 14.3 °F 17.6 °F 93% 29.97 in 10.0 mi NNW 3.5 mph - N/A   Overcast
6:36 AM 19.4 °F 11.5 °F 17.6 °F 93% 29.98 in 10.0 mi North 5.8 mph - N/A   Overcast
6:56 AM 17.6 °F 12.3 °F 15.8 °F 93% 29.99 in 10.0 mi North 3.5 mph - N/A   Overcast
7:16 AM 17.6 °F 12.3 °F 15.8 °F 93% 29.99 in 10.0 mi North 3.5 mph - N/A   Overcast
7:36 AM 17.6 °F 9.3 °F 15.8 °F 93% 30.00 in 10.0 mi NNW 5.8 mph - N/A   Overcast
7:56 AM 17.6 °F 10.7 °F 15.8 °F 93% 30.00 in 10.0 mi NNW 4.6 mph - N/A   Overcast
8:16 AM 17.6 °F 10.7 °F 15.8 °F 93% 30.00 in 10.0 mi NNW 4.6 mph - N/A   Overcast
8:36 AM 15.8 °F 7.2 °F 14.0 °F 93% 30.00 in 10.0 mi NNW 5.8 mph - N/A   Overcast
8:56 AM 15.8 °F 7.2 °F 14.0 °F 93% 30.00 in 10.0 mi NW 5.8 mph - N/A   Overcast
9:16 AM 15.8 °F 10.2 °F 12.2 °F 86% 30.00 in 10.0 mi NW 3.5 mph - N/A   Overcast
9:36 AM 15.8 °F 8.6 °F 12.2 °F 86% 30.00 in 10.0 mi NW 4.6 mph - N/A   Overcast
9:56 AM 15.8 °F 8.6 °F 12.2 °F 86% 30.00 in 10.0 mi NW 4.6 mph - N/A   Scattered Clouds
10:16 AM 14.0 °F 5.1 °F 12.2 °F 93% 30.00 in 10.0 mi WNW 5.8 mph - N/A   Scattered Clouds
10:36 AM 14.0 °F 8.2 °F 10.4 °F 86% 30.00 in 10.0 mi NW 3.5 mph - N/A   Scattered Clouds
10:56 AM 14.0 °F 5.1 °F 10.4 °F 86% 30.01 in 10.0 mi NW 5.8 mph - N/A   Mostly Cloudy
11:16 AM 12.2 °F 2.9 °F 10.4 °F 92% 30.00 in 10.0 mi NNW 5.8 mph - N/A   Overcast
11:36 AM 12.2 °F 2.9 °F 10.4 °F 92% 30.00 in 10.0 mi NNW 5.8 mph - N/A   Overcast
11:56 AM 12.2 °F 6.1 °F 10.4 °F 92% 29.99 in 10.0 mi NW 3.5 mph - N/A   Overcast
12:16 PM 12.2 °F 2.9 °F 10.4 °F 92% 29.99 in 10.0 mi NW 5.8 mph - N/A Snow Light Snow
12:36 PM 12.2 °F 6.1 °F 10.4 °F 92% 29.98 in 7.0 mi NNW 3.5 mph - N/A Snow Light Snow
12:56 PM 12.2 °F 1.7 °F 10.4 °F 92% 29.98 in 5.0 mi WNW 6.9 mph - N/A Snow Light Snow
1:16 PM 12.2 °F 6.1 °F 10.4 °F 92% 29.97 in 5.0 mi NW 3.5 mph - N/A Snow Light Snow
1:36 PM 12.2 °F 2.9 °F 10.4 °F 92% 29.97 in 5.0 mi NW 5.8 mph - N/A Snow Light Snow
1:56 PM 12.2 °F 1.7 °F 8.6 °F 85% 29.97 in 5.0 mi NW 6.9 mph - N/A Snow Light Snow
2:16 PM 12.2 °F 1.7 °F 8.6 °F 85% 29.97 in 4.0 mi NW 6.9 mph - N/A Snow Light Snow
2:36 PM 12.2 °F 0.7 °F 10.4 °F 92% 29.97 in 3.0 mi NW 8.1 mph - N/A Snow Light Snow
2:56 PM 12.2 °F 2.9 °F 10.4 °F 92% 29.98 in 5.0 mi NW 5.8 mph - N/A Snow Light Snow
3:16 PM 12.2 °F 1.7 °F 8.6 °F 85% 29.99 in 4.0 mi WNW 6.9 mph - N/A Snow Light Snow
3:36 PM 12.2 °F 6.1 °F 8.6 °F 85% 30.00 in 2.5 mi North 3.5 mph - N/A Snow Light Snow
3:56 PM 10.4 °F -0.4 °F 8.6 °F 92% 30.00 in 7.0 mi NW 6.9 mph - N/A Snow Light Snow
4:16 PM 10.4 °F 0.8 °F 8.6 °F 92% 30.01 in 4.0 mi NNW 5.8 mph - N/A Snow Light Snow
4:36 PM 10.4 °F -0.4 °F 6.8 °F 85% 30.01 in 10.0 mi NNW 6.9 mph - N/A Snow Light Snow
4:57 PM 10.4 °F -0.4 °F 6.8 °F 85% 30.02 in 5.0 mi NNW 6.9 mph - N/A Snow Light Snow
5:16 PM 10.4 °F -0.4 °F 6.8 °F 85% 30.03 in 7.0 mi NW 6.9 mph - N/A Snow Light Snow
5:36 PM 10.4 °F 0.8 °F 6.8 °F 85% 30.03 in 7.0 mi NW 5.8 mph - N/A Snow Light Snow
5:56 PM 8.6 °F 0.1 °F 6.8 °F 92% 30.04 in 5.0 mi NW 4.6 mph - N/A Snow Light Snow
6:16 PM 8.6 °F -1.3 °F 6.8 °F 92% 30.04 in 4.0 mi NNW 5.8 mph - N/A Snow Light Snow
6:36 PM 8.6 °F -1.3 °F 6.8 °F 92% 30.05 in 4.0 mi NNW 5.8 mph - N/A Snow Light Snow
6:56 PM 8.6 °F 0.1 °F 6.8 °F 92% 30.05 in 3.0 mi NW 4.6 mph - N/A Snow Light Snow
7:16 PM 8.6 °F 2.0 °F 6.8 °F 92% 30.05 in 2.5 mi NNW 3.5 mph - N/A Snow Light Snow
7:36 PM 8.6 °F 0.1 °F 6.8 °F 92% 30.05 in 4.0 mi NNW 4.6 mph - N/A Snow Light Snow
7:56 PM 8.6 °F 0.1 °F 6.8 °F 92% 30.05 in 2.5 mi North 4.6 mph - N/A Snow Light Snow
8:16 PM 6.8 °F -3.5 °F 3.2 °F 85% 30.05 in 5.0 mi North 5.8 mph - N/A Snow Light Snow
8:36 PM 6.8 °F -4.8 °F 3.2 °F 85% 30.06 in 10.0 mi NNW 6.9 mph - N/A Snow Light Snow
8:56 PM 6.8 °F -2.0 °F 3.2 °F 85% 30.07 in 10.0 mi NW 4.6 mph - N/A Snow Light Snow
9:16 PM 5.0 °F -5.6 °F 1.4 °F 85% 30.07 in 7.0 mi NNW 5.8 mph - N/A Snow Light Snow
9:36 PM 5.0 °F -5.6 °F 1.4 °F 85% 30.08 in 10.0 mi NW 5.8 mph - N/A Snow Light Snow
9:56 PM 5.0 °F -5.6 °F 1.4 °F 85% 30.09 in 10.0 mi NW 5.8 mph - N/A   Clear
10:16 PM 5.0 °F -6.9 °F 1.4 °F 85% 30.09 in 10.0 mi NW 6.9 mph - N/A Snow Light Snow
10:36 PM 5.0 °F -5.6 °F 1.4 °F 85% 30.10 in 10.0 mi NW 5.8 mph - N/A Snow Light Snow
10:56 PM 5.0 °F -5.6 °F 1.4 °F 85% 30.11 in 10.0 mi NW 5.8 mph - N/A Snow Light Snow
11:16 PM 5.0 °F -4.1 °F 1.4 °F 85% 30.11 in 10.0 mi NW 4.6 mph - N/A   Clear
11:36 PM 5.0 °F -2.1 °F 1.4 °F 85% 30.11 in 10.0 mi NW 3.5 mph - N/A Snow Light Snow
11:56 PM 5.0 °F -2.1 °F 1.4 °F 85% 30.10 in 10.0 mi NNW 3.5 mph - N/A   Clear